Midland, MI

7:06 AM EST on November 25, 2017 (GMT -0500)
Barstow

Weather History for KIKW - April, 2014

Change the Weather History Date:

Tuesday, April 8, 2014

  Actual Average (KMBS) Record (KMBS)
Temperature  
Mean Temperature 50 °F -  
Max Temperature 61 °F 49 °F 68 °F (2001)
Min Temperature 38 °F 32 °F 21 °F (1997)
Degree Days  
Heating Degree Days 16    
Moisture  
Dew Point 28 °F    
Average Humidity 46    
Maximum Humidity 64    
Minimum Humidity 29    
Precipitation  
Precipitation 0.00 in - - ()
Sea Level Pressure  
Sea Level Pressure 29.63 in    
Wind  
Wind Speed 7 mph (NW)    
Max Wind Speed 17 mph    
Max Gust Speed 24 mph    
Visibility 10 miles    
Events      
Averages and records for this station are not official NWS values.
T = Trace of Precipitation, MM = Missing Value Source: NWS Daily Summary

Daily Weather History Graph

Daily Weather History Graph

Search for Another Location

Airport or City:

Trip Planner

Search our weather history database for the weather conditions in past years. The results will help you decide how hot, cold, wet, or windy it might be!

Date:

Astronomy

Apr. 08, 2014 Rise Set
Actual Time 7:06 AM EDT 8:12 PM EDT
Civil Twilight 6:36 AM EDT 8:41 PM EDT
Nautical Twilight 6:01 AM EDT 9:16 PM EDT
Astronomical Twilight 5:24 AM EDT 9:53 PM EDT
Moon 1:54 PM EDT (4/8) 3:29 AM EDT (4/8)
Length of Visible Light 14h 04m
Length of Day
13h 05m
Waxing Gibbous, 62% of the Moon is Illuminated
Apr 8
Waxing Gibbous
Apr 15
Full
Apr 22
Last Quarter
Apr 29
New
May 6
First Quarter

Hourly Weather History & Observations

Time (EDT) Temp. Windchill Dew Point Humidity Pressure Visibility Wind Dir Wind Speed Gust Speed Precip Events Conditions
12:13 AM 41.4 °F 39.4 °F 25.5 °F 53% 29.54 in 10.0 mi NNW 3.5 mph - N/A   Mostly Cloudy
12:33 AM 41.4 °F 39.4 °F 24.8 °F 52% 29.53 in 10.0 mi NNW 3.5 mph - N/A   Scattered Clouds
12:54 AM 41.0 °F 38.0 °F 24.8 °F 53% 29.53 in 10.0 mi NW 4.6 mph - N/A   Scattered Clouds
1:13 AM 41.2 °F 39.2 °F 24.1 °F 51% 29.53 in 10.0 mi NNW 3.5 mph - N/A   Scattered Clouds
1:33 AM 41.0 °F 39.0 °F 23.9 °F 51% 29.52 in 10.0 mi NW 3.5 mph - N/A   Mostly Cloudy
1:53 AM 40.3 °F 38.2 °F 25.7 °F 56% 29.52 in 10.0 mi WNW 3.5 mph - N/A   Overcast
2:13 AM 40.3 °F 37.1 °F 25.7 °F 56% 29.52 in 10.0 mi NW 4.6 mph - N/A   Mostly Cloudy
2:34 AM 40.6 °F 36.7 °F 25.2 °F 54% 29.51 in 10.0 mi NW 5.8 mph - N/A   Mostly Cloudy
2:53 AM 41.0 °F 36.4 °F 24.8 °F 53% 29.51 in 10.0 mi NW 6.9 mph - N/A   Scattered Clouds
3:13 AM 41.4 °F 36.8 °F 24.3 °F 51% 29.51 in 10.0 mi NW 6.9 mph - N/A   Scattered Clouds
3:34 AM 41.4 °F 36.8 °F 24.1 °F 50% 29.50 in 10.0 mi NW 6.9 mph - N/A   Mostly Cloudy
3:53 AM 41.4 °F 36.2 °F 24.1 °F 50% 29.51 in 10.0 mi NW 8.1 mph - N/A   Scattered Clouds
4:13 AM 41.2 °F 37.3 °F 23.9 °F 50% 29.51 in 10.0 mi NW 5.8 mph - N/A   Scattered Clouds
4:34 AM 41.2 °F 36.6 °F 23.9 °F 50% 29.51 in 10.0 mi NW 6.9 mph - N/A   Scattered Clouds
4:53 AM 41.0 °F 37.1 °F 23.9 °F 51% 29.51 in 10.0 mi NW 5.8 mph - N/A   Clear
5:13 AM 40.3 °F 36.3 °F 24.1 °F 52% 29.51 in 10.0 mi WNW 5.8 mph - N/A   Clear
5:34 AM 40.3 °F 38.2 °F 23.9 °F 52% 29.52 in 10.0 mi NW 3.5 mph - N/A   Clear
5:53 AM 39.4 °F 36.1 °F 23.9 °F 54% 29.53 in 10.0 mi WNW 4.6 mph - N/A   Clear
6:13 AM 38.7 °F 35.2 °F 23.9 °F 55% 29.53 in 10.0 mi WNW 4.6 mph - N/A   Clear
6:34 AM 38.5 °F 35.0 °F 24.1 °F 56% 29.54 in 10.0 mi WNW 4.6 mph - N/A   Scattered Clouds
6:53 AM 38.5 °F 35.0 °F 24.4 °F 57% 29.55 in 10.0 mi WNW 4.6 mph - N/A   Scattered Clouds
7:13 AM 38.5 °F 35.0 °F 24.4 °F 57% 29.56 in 10.0 mi WNW 4.6 mph - N/A   Mostly Cloudy
7:34 AM 38.5 °F 35.0 °F 24.4 °F 57% 29.57 in 10.0 mi NW 4.6 mph - N/A   Overcast
7:53 AM 38.5 °F 35.0 °F 24.6 °F 58% 29.58 in 10.0 mi WNW 4.6 mph - N/A   Scattered Clouds
8:06 AM 38.7 °F 36.3 °F 24.6 °F 57% 29.58 in 10.0 mi NW 3.5 mph - N/A   Clear
8:33 AM 40.8 °F 36.9 °F 24.6 °F 53% 29.59 in 10.0 mi WNW 5.8 mph - N/A   Clear
8:53 AM 42.6 °F 38.4 °F 24.3 °F 48% 29.60 in 10.0 mi WNW 6.9 mph - N/A   Mostly Cloudy
9:13 AM 44.1 °F 39.5 °F 23.9 °F 45% 29.60 in 10.0 mi NW 8.1 mph - N/A   Mostly Cloudy
9:33 AM 45.1 °F 40.8 °F 24.1 °F 44% 29.60 in 10.0 mi NW 8.1 mph - N/A   Scattered Clouds
9:53 AM 45.5 °F 42.5 °F 24.1 °F 43% 29.61 in 10.0 mi NW 5.8 mph - N/A   Mostly Cloudy
10:13 AM 47.1 °F - 23.4 °F 39% 29.61 in 10.0 mi NW 9.2 mph 16.1 mph N/A   Mostly Cloudy
10:33 AM 49.1 °F - 23.9 °F 37% 29.62 in 10.0 mi NNW 6.9 mph - N/A   Mostly Cloudy
10:53 AM 50.0 °F - 23.9 °F 36% 29.62 in 10.0 mi WNW 9.2 mph - N/A   Overcast
11:13 AM 51.6 °F - 25.0 °F 36% 29.62 in 10.0 mi WNW 4.6 mph - N/A   Scattered Clouds
11:33 AM 53.4 °F - 27.5 °F 37% 29.63 in 10.0 mi West 8.1 mph - N/A   Scattered Clouds
11:53 AM 54.5 °F - 28.6 °F 37% 29.63 in 10.0 mi West 8.1 mph - N/A   Clear
12:13 PM 56.1 °F - 30.4 °F 38% 29.63 in 10.0 mi West 11.5 mph 17.3 mph N/A   Clear
12:33 PM 56.1 °F - 30.2 °F 37% 29.64 in 10.0 mi WNW 11.5 mph 17.3 mph N/A   Clear
12:53 PM 57.2 °F - 29.7 °F 35% 29.63 in 10.0 mi NNW 8.1 mph - N/A   Clear
1:13 PM 58.5 °F - 30.2 °F 34% 29.64 in 10.0 mi West 5.8 mph - N/A   Clear
1:33 PM 58.5 °F - 29.3 °F 33% 29.64 in 7.0 mi WNW 13.8 mph 18.4 mph N/A   Clear
1:53 PM 59.2 °F - 28.4 °F 31% 29.63 in 10.0 mi NW 9.2 mph - N/A   Clear
2:13 PM 59.7 °F - 27.1 °F 29% 29.63 in 7.0 mi NW 12.7 mph 19.6 mph N/A   Clear
2:33 PM 59.0 °F - 29.5 °F 33% 29.64 in 10.0 mi NNW 13.8 mph 21.9 mph N/A   Clear
2:53 PM 60.4 °F - 30.6 °F 32% 29.63 in 10.0 mi NW 15.0 mph 19.6 mph N/A   Scattered Clouds
3:13 PM 60.1 °F - 31.3 °F 34% 29.64 in 10.0 mi NNW 10.4 mph 24.2 mph N/A   Mostly Cloudy
3:33 PM 60.1 °F - 31.1 °F 33% 29.64 in 10.0 mi WNW 11.5 mph 23.0 mph N/A   Scattered Clouds
3:53 PM 58.5 °F - 30.6 °F 35% 29.64 in 10.0 mi WNW 17.3 mph 21.9 mph N/A   Scattered Clouds
4:13 PM 61.2 °F - 31.5 °F 33% 29.64 in 10.0 mi WNW 12.7 mph 19.6 mph N/A   Mostly Cloudy
4:33 PM 58.5 °F - 30.9 °F 35% 29.64 in 10.0 mi NW 11.5 mph 19.6 mph N/A   Scattered Clouds
4:54 PM 58.1 °F - 31.1 °F 36% 29.65 in 10.0 mi WNW 17.3 mph 23.0 mph N/A   Scattered Clouds
5:13 PM 57.4 °F - 31.1 °F 37% 29.65 in 10.0 mi NNW 10.4 mph 18.4 mph N/A   Clear
5:33 PM 57.6 °F - 31.3 °F 37% 29.66 in 10.0 mi NW 15.0 mph 20.7 mph N/A   Scattered Clouds
5:54 PM 58.8 °F - 31.6 °F 36% 29.67 in 10.0 mi NNW 17.3 mph 21.9 mph N/A   Scattered Clouds
6:13 PM 56.5 °F - 31.6 °F 39% 29.68 in 10.0 mi NNW 12.7 mph 23.0 mph N/A   Mostly Cloudy
6:33 PM 55.4 °F - 32.2 °F 41% 29.70 in 10.0 mi NNW 8.1 mph 17.3 mph N/A   Mostly Cloudy
6:54 PM 56.5 °F - 32.0 °F 39% 29.71 in 10.0 mi NNW 15.0 mph 20.7 mph N/A   Scattered Clouds
7:13 PM 55.4 °F - 32.0 °F 41% 29.72 in 10.0 mi NNW 11.5 mph 17.3 mph N/A   Clear
7:33 PM 53.8 °F - 32.2 °F 44% 29.73 in 10.0 mi NNW 12.7 mph 21.9 mph N/A   Clear
7:54 PM 52.7 °F - 32.7 °F 47% 29.74 in 10.0 mi NW 10.4 mph 17.3 mph N/A   Clear
8:13 PM 51.1 °F - 32.0 °F 48% 29.75 in 10.0 mi NW 9.2 mph 17.3 mph N/A   Clear
8:33 PM 50.0 °F - 31.3 °F 49% 29.76 in 10.0 mi NW 11.5 mph 16.1 mph N/A   Clear
8:54 PM 49.5 °F - 31.5 °F 50% 29.78 in 10.0 mi NW 9.2 mph - N/A   Clear
9:13 PM 48.6 °F - 30.4 °F 50% 29.79 in 10.0 mi NNW 10.4 mph 20.7 mph N/A   Clear
9:33 PM 47.3 °F - 30.4 °F 52% 29.81 in 10.0 mi NW 10.4 mph 16.1 mph N/A   Clear
9:54 PM 46.4 °F 41.5 °F 30.9 °F 55% 29.81 in 10.0 mi NW 10.4 mph - N/A   Clear
10:13 PM 45.5 °F 40.3 °F 31.1 °F 57% 29.82 in 10.0 mi NW 10.4 mph - N/A   Clear
10:33 PM 44.8 °F 38.7 °F 31.1 °F 59% 29.82 in 10.0 mi NW 12.7 mph - N/A   Clear
10:53 PM 43.9 °F 37.5 °F 30.7 °F 60% 29.82 in 10.0 mi NW 12.7 mph - N/A   Clear
11:13 PM 43.3 °F 38.1 °F 30.2 °F 60% 29.83 in 10.0 mi NW 9.2 mph - N/A   Clear
11:33 PM 42.1 °F 37.1 °F 30.0 °F 62% 29.83 in 10.0 mi NW 8.1 mph - N/A   Clear
11:53 PM 41.0 °F 36.4 °F 29.8 °F 64% 29.84 in 10.0 mi NW 6.9 mph - N/A   Clear